EW2835 Weather Reports


time (UTC)temp
C
wind
direction
speed
KPH
gust
KPH
rain 1hr
cm
rain 24hr
cm
rain mn
cm
humidity
%
barometer
mb
20260504223013 15 19 1.6 6.4 0.00 0.00 0.00 79 1011.5
20260504221511 14 51 1.6 11.3 0.00 0.00 0.00 80 1011.5
20260504220009 14 39 0.0 1.6 0.00 0.00 0.00 80 1011.6
20260504214515 14 61 0.0 6.4 0.00 0.00 0.00 81 1011.5
20260504213008 14 13 0.0 3.2 0.00 0.00 0.00 81 1011.7
20260504211507 14 332 0.0 0.0 0.00 0.00 0.00 80 1011.7
20260504210010 15 332 0.0 0.0 0.00 0.00 0.00 80 1011.7
20260504204506 15 332 0.0 0.0 0.00 0.00 0.00 79 1011.7
20260504203005 15 332 0.0 0.0 0.00 0.00 0.00 78 1011.8
20260504201504 15 332 0.0 0.0 0.00 0.00 0.00 78 1011.7
20260504200009 16 332 0.0 0.0 0.00 0.00 0.00 77 1011.6
20260504194509 16 332 0.0 0.0 0.00 0.00 0.00 75 1011.6
20260504193009 16 332 0.0 0.0 0.00 0.00 0.00 73 1011.5
20260504191502 17 332 0.0 1.6 0.00 0.00 0.00 71 1011.5
20260504190005 17 332 0.0 0.0 0.00 0.00 0.00 69 1011.4
20260504184502 18 332 0.0 0.0 0.00 0.00 0.00 65 1011.4
20260504183001 19 332 0.0 4.8 0.00 0.00 0.00 63 1011.3
20260504181600 19 307 1.6 4.8 0.00 0.00 0.00 61 1011.3
20260504180058 20 332 0.0 4.8 0.00 0.00 0.00 60 1011.2
20260504174600 20 300 1.6 6.4 0.00 0.00 0.00 58 1011.2
20260504173057 20 300 0.0 4.8 0.00 0.00 0.00 58 1011.2
20260504171554 20 325 3.2 6.4 0.00 0.00 0.00 57 1011.1
20260504081540 20 14 1.6 12.9 0.00 0.00 0.00 62 1012.7
20260504050010 13 185 1.6 3.2 0.00 0.00 0.00 85 1011.6
20260504044521 13 185 0.0 0.0 0.00 0.00 0.00 85 1011.4
20260504043006 13 185 0.0 1.6 0.00 0.00 0.00 84 1011.4
20260504041502 13 185 0.0 3.2 0.00 0.00 0.00 84 1011.2
20260504040003 13 215 0.0 0.0 0.00 0.00 0.00 83 1011.0
20260504034614 13 215 0.0 3.2 0.00 0.00 0.00 82 1010.9
20260504033056 14 215 0.0 0.0 0.00 0.00 0.00 79 1010.9
20260504031554 15 215 0.0 0.0 0.00 0.00 0.00 75 1011.1
20260504030052 15 215 0.0 0.0 0.00 0.00 0.00 70 1011.2
20260504024548 15 215 0.0 0.0 0.00 0.00 0.00 67 1011.2
20260504023046 15 215 0.0 0.0 0.00 0.00 0.00 66 1011.2
20260504021545 15 215 0.0 0.0 0.00 0.00 0.00 64 1011.4
20260504020043 15 215 0.0 3.2 0.00 0.00 0.00 64 1011.3
20260504014558 15 215 0.0 1.6 0.00 0.00 0.00 62 1011.1
20260504013038 16 215 0.0 1.6 0.00 0.00 0.00 61 1011.1
20260504011534 17 215 0.0 3.2 0.00 0.00 0.00 58 1010.8
20260504010033 17 271 0.0 4.8 0.00 0.00 0.00 55 1010.7
20260504004532 18 269 0.0 1.6 0.00 0.00 0.00 51 1010.6
20260504003030 18 264 0.0 4.8 0.00 0.00 0.00 49 1010.6
20260504001530 19 289 1.6 6.4 0.00 0.00 0.00 48 1010.7
20260504000029 19 296 1.6 11.3 0.00 0.00 0.00 47 1010.6
20260503234544 20 311 3.2 12.9 0.00 0.00 0.00 44 1010.7
20260503233027 20 303 3.2 11.3 0.00 0.00 0.00 44 1010.6
20260503231528 20 251 3.2 11.3 0.00 0.00 0.00 43 1010.6
20260503230034 20 248 3.2 11.3 0.00 0.00 0.00 43 1010.4
20260503224525 21 288 3.2 12.9 0.00 0.00 0.00 43 1010.5